Location: Unspecified
(0.0000°N, 0.0000°E)
Time: 23:33:56
(UTC+00:00)

Courier 1B Rocket - All Passes

Search period start: 18 April 2015 00:00
Search period end: 28 April 2015 00:00
Orbit: 921 x 1202 km, 28.2° (Epoch: 17 April)

Date Brightness Start Highest point End Pass type
(mag) Time Alt. Az. Time Alt. Az. Time Alt. Az.
18 Apr - 01:04:36 10° W 01:10:17 26° NNW 01:16:11 10° NNE night (unlit)
18 Apr - 08:46:46 10° NNW 08:52:54 26° NNE 08:58:57 10° E daylight
18 Apr - 10:39:27 10° WNW 10:47:03 81° NNE 10:54:07 10° ESE daylight
18 Apr - 12:34:35 10° W 12:40:47 30° SSW 12:46:33 10° SSE daylight
18 Apr - 20:17:37 10° SSW 20:21:32 17° SSE 20:25:43 10° ESE visible
18 Apr - 22:08:56 10° SW 22:15:18 64° SSE 22:22:06 10° ENE night (unlit)
19 Apr - 00:02:49 10° W 00:08:58 37° NNW 00:15:29 10° NE night (unlit)
19 Apr - 02:00:39 10° NW 02:03:38 12° NNW 02:06:24 10° N visible
19 Apr - 07:46:18 10° NNW 07:51:21 19° NNE 07:56:31 10° ENE daylight
19 Apr - 09:38:18 10° NW 09:45:48 55° NNE 09:52:55 10° ESE daylight
19 Apr - 11:32:31 10° W 11:39:36 45° SSW 11:46:12 10° SE daylight
19 Apr - 13:30:29 10° SW 13:33:46 13° SSW 13:36:43 10° S daylight
19 Apr - 19:18:41 10° S 19:20:13 11° SSE 19:22:01 10° SE visible
19 Apr - 21:08:24 10° SW 21:14:17 40° SSE 21:20:29 10° E visible
19 Apr - 23:01:26 10° WSW 23:07:48 54° NNW 23:14:36 10° NE night (unlit)
20 Apr - 00:57:37 10° WNW 01:02:02 17° NNW 01:06:26 10° NNE night (unlit)
20 Apr - 06:46:16 10° N 06:49:40 13° NNE 06:53:18 10° NE daylight
20 Apr - 08:37:22 10° NW 08:44:28 38° NNE 08:51:22 10° E daylight
20 Apr - 10:30:48 10° WNW 10:38:25 69° SSW 10:45:33 10° SE daylight
20 Apr - 12:27:08 10° WSW 12:32:23 20° SSW 12:37:14 10° SSE daylight
20 Apr - 20:08:07 10° SSW 20:13:13 26° SSE 20:18:32 10° E visible
20 Apr - 22:00:22 10° WSW 22:06:45 83° NNW 22:13:33 10° ENE night (unlit)
20 Apr - 23:55:20 10° WNW 00:00:37 24° NNW 00:06:03 10° NNE night (unlit)
21 Apr - 07:36:41 10° NNW 07:43:01 27° NNE 07:49:22 10° E daylight
21 Apr - 09:29:23 10° WNW 09:37:11 83° NNE 09:44:36 10° ESE daylight
21 Apr - 11:24:33 10° W 11:31:04 31° SSW 11:37:08 10° SSE daylight
21 Apr - 19:08:10 10° SSW 19:12:03 17° SSE 19:16:08 10° ESE visible
21 Apr - 20:59:34 10° SW 21:05:47 65° SSE 21:12:18 10° ENE visible
21 Apr - 22:53:33 10° W 22:59:22 34° NNW 23:05:27 10° NE night (unlit)
22 Apr - 00:51:54 10° NW 00:53:56 11° NNW 00:55:45 10° N night (unlit)
22 Apr - 06:36:16 10° NNW 06:41:27 19° NNE 06:46:50 10° ENE daylight
22 Apr - 08:28:14 10° NW 08:35:54 57° NNE 08:43:20 10° ESE daylight
22 Apr - 10:22:28 10° W 10:29:47 46° SSW 10:36:42 10° SE daylight
22 Apr - 12:20:23 10° SW 12:24:06 14° SSW 12:27:28 10° S daylight
22 Apr - 18:09:00 10° S 18:10:45 11° SSE 18:12:42 10° SE daylight
22 Apr - 19:59:00 10° SW 20:04:48 41° SSE 20:10:48 10° E visible
22 Apr - 21:52:08 10° WSW 21:58:16 52° NNW 22:04:42 10° NE night (unlit)
22 Apr - 23:48:32 10° WNW 23:52:24 16° NNW 23:56:12 10° NNE night (unlit)
23 Apr - 05:36:19 10° N 05:39:47 14° NNE 05:43:32 10° NE visible
23 Apr - 07:27:21 10° NW 07:34:32 40° NNE 07:41:41 10° E daylight
23 Apr - 09:20:45 10° WNW 09:28:31 68° SSW 09:35:58 10° SE daylight
23 Apr - 11:17:05 10° WSW 11:22:38 21° SSW 11:27:48 10° SSE daylight
23 Apr - 18:58:38 10° SSW 19:03:46 27° SSE 19:08:59 10° E visible
23 Apr - 20:51:00 10° WSW 20:57:16 80° NNW 21:03:46 10° ENE visible
23 Apr - 22:46:09 10° WNW 22:51:02 22° NNW 22:56:01 10° NNE night (unlit)
24 Apr - 06:26:43 10° NNW 06:33:05 28° NNE 06:39:36 10° E daylight
24 Apr - 08:19:21 10° WNW 08:27:14 85° NNE 08:34:56 10° ESE daylight
24 Apr - 10:14:31 10° W 10:21:14 31° SSW 10:27:35 10° SSE daylight
24 Apr - 17:58:33 10° SSW 18:02:35 18° SSE 18:06:45 10° ESE daylight
24 Apr - 19:50:08 10° SW 19:56:20 67° SSE 20:02:38 10° ENE visible
24 Apr - 21:44:16 10° W 21:49:51 32° NNW 21:55:34 10° NE visible
25 Apr - 05:26:24 10° NNW 05:31:33 20° NNE 05:37:00 10° ENE visible
25 Apr - 07:18:16 10° NW 07:25:55 59° NNE 07:33:35 10° ESE daylight
25 Apr - 09:12:27 10° W 09:19:53 45° SSW 09:27:03 10° SE daylight
25 Apr - 11:10:16 10° SW 11:14:21 15° SSW 11:18:04 10° S daylight
25 Apr - 16:59:02 10° S 17:01:16 12° SSE 17:03:41 10° SE daylight
25 Apr - 18:49:28 10° SW 18:55:22 42° SSE 19:01:16 10° E visible
25 Apr - 20:42:46 10° WSW 20:48:48 49° NNW 20:54:56 10° NE visible
25 Apr - 22:39:30 10° NW 22:42:50 14° NNW 22:46:04 10° N night (unlit)
26 Apr - 04:26:36 10° N 04:29:55 13° NNE 04:33:34 10° NE visible
26 Apr - 06:17:27 10° NW 06:24:34 41° NNE 06:31:51 10° E daylight
26 Apr - 08:10:47 10° WNW 08:18:34 66° SSW 08:26:14 10° SE daylight
26 Apr - 10:07:03 10° WSW 10:12:48 22° SSW 10:18:13 10° SSE daylight
26 Apr - 17:49:00 10° SSW 17:54:19 28° SSE 17:59:35 10° E daylight
26 Apr - 19:41:34 10° WSW 19:47:50 77° NNW 19:54:08 10° NE visible
26 Apr - 21:36:56 10° WNW 21:41:32 21° NNW 21:46:07 10° NNE visible
27 Apr - 05:16:54 10° NNW 05:23:09 28° NNE 05:29:42 10° E visible
27 Apr - 07:09:26 10° WNW 07:17:15 86° NNE 07:25:07 10° ESE daylight
27 Apr - 09:04:32 10° W 09:11:20 31° SSW 09:17:53 10° SSE daylight
27 Apr - 11:05:16 10° SSW 11:06:13 10° SSW 11:06:51 10° SSW daylight
27 Apr - 16:48:44 10° SSW 16:53:07 19° SSE 16:57:30 10° ESE daylight
27 Apr - 18:40:36 10° SW 18:46:54 69° SSE 18:53:07 10° ENE visible
27 Apr - 20:34:56 10° W 20:40:23 31° NNW 20:45:50 10° NNE visible
